EHI
73 71 70 68 65 61 57 53 47 40 33 32 33 33 29 25 23 23 21 15 8 7 9 10 10 7 5 6 7 8 7 5 5 4 3 2 1 2 5 5 2 1 1
72 69 67 65 61 58 53 48 45 39 33 33 33 32 30 24 21 22 21 14 7 5 7 11 11 8 8 9 12 13 9 5 5 5 3 1 0 1 3 3 2 1 2
72 67 63 59 54 49 46 44 43 39 34 32 30 31 30 23 19 21 19 13 7 5 7 11 12 11 11 13 15 16 12 7 5 5 4 1 0 0 1 2 1 2 4
70 66 60 55 48 43 42 45 46 42 38 33 29 28 25 20 18 19 17 13 9 6 7 10 13 13 14 14 14 14 13 8 5 4 3 1 0 0 0 0 0 2 3
66 63 59 53 47 43 45 49 51 47 42 37 31 26 21 16 15 17 16 14 11 7 6 10 15 17 18 16 14 14 13 8 3 2 1 0 0 0 0 0 0 0 1
60 61 59 54 49 47 49 52 53 51 46 40 33 27 20 15 14 15 15 13 11 8 7 12 18 20 20 20 18 16 13 7 3 1 0 0 0 0 0 0 0 0 0
53 57 59 54 49 48 50 53 53 52 47 40 35 29 20 13 13 14 13 11 9 9 10 15 19 18 17 19 19 17 12 6 4 2 0 0 0 0 0 0 0 0 0
48 53 56 52 47 46 49 52 53 50 45 38 33 29 21 13 10 10 10 10 9 10 13 18 20 17 13 14 17 15 9 6 4 2 1 1 0 0 0 1 1 0 0
45 49 51 50 47 46 49 52 53 50 43 35 29 25 21 15 10 9 8 9 9 11 15 19 19 18 14 15 15 12 8 6 3 1 1 1 1 0 1 2 2 1 1
44 45 47 49 49 47 49 53 53 49 42 36 29 23 21 18 15 12 12 12 13 16 19 18 17 17 17 17 15 10 9 8 4 1 1 2 1 1 2 3 3 3 2
46 47 48 50 50 50 52 53 51 45 41 38 33 26 24 22 19 17 17 18 20 23 23 19 16 16 17 16 13 9 8 8 5 2 2 1 1 2 4 3 3 3 2
50 52 53 52 51 53 54 51 47 43 40 37 35 32 30 27 22 19 20 22 23 23 23 21 18 15 14 14 12 8 7 7 4 3 3 2 1 2 3 2 1 1 1
54 57 59 55 52 52 52 50 45 41 38 35 34 32 31 29 25 20 20 22 22 20 20 20 17 13 11 12 10 8 8 7 5 5 6 3 1 2 2 1 0 0 0
58 62 65 62 56 53 50 47 42 37 34 32 30 28 29 29 26 21 19 20 20 19 18 18 15 10 8 8 8 8 7 6 6 6 6 3 1 1 2 1 1 0 0
61 66 70 67 60 53 49 45 40 37 34 30 26 25 26 25 23 21 19 18 19 18 18 18 14 9 6 5 5 6 6 5 4 4 3 2 0 0 1 1 0 0 0
65 69 72 69 63 56 50 46 43 39 33 27 24 23 24 21 19 18 18 20 20 19 18 16 13 9 5 2 2 4 6 5 4 3 2 1 0 0 0 0 0 0 0
70 71 72 70 66 57 51 48 45 37 30 25 24 25 23 20 19 18 18 20 21 19 16 14 12 10 6 1 0 2 4 4 4 4 3 1 0 0 0 0 0 0 0
69 69 68 67 64 58 52 48 42 33 26 23 24 26 25 23 22 21 19 18 19 18 16 13 13 11 7 2 0 1 1 2 3 4 3 2 0 0 0 0 0 0 0
60 60 61 62 62 59 53 47 41 34 27 25 25 25 25 25 23 21 18 15 15 14 12 11 11 11 7 2 0 0 0 1 2 2 2 1 0 0 0 0 0 0 0
52 51 54 58 61 58 52 48 43 37 31 29 27 26 25 23 20 16 14 12 10 8 7 7 8 8 5 2 0 0 0 0 1 1 1 0 0 0 0 0 0 0 0
46 46 48 52 54 52 48 45 41 35 32 29 26 23 20 17 14 11 10 8 6 5 4 4 4 4 3 1 0 0 1 0 0 0 0 0 0 0 0 0 0 0 0
36 37 40 43 44 43 41 38 34 30 27 24 20 17 13 10 8 7 6 5 4 3 3 3 3 2 1 0 0 0 0 0 0 0 0 0 0 0 0 0 0 0 0
25 26 30 34 36 34 33 30 27 25 23 19 14 11 9 8 6 5 4 3 3 3 2 2 2 1 0 0 0 0 0 0 0 0 0 0 0 0 0 0 0 0 0
20 21 24 27 27 25 23 22 21 20 19 15 10 8 7 6 4 3 2 2 2 1 1 1 1 0 0 0 0 0 0 0 0 0 0 0 0 0 0 0 0 0 0
18 20 21 20 18 16 16 16 16 16 14 12 7 5 3 3 1 1 1 1 1 0 0 0 0 0 0 0 0 0 0 0 0 0 0 0 0 0 0 0 0 0 0
17 19 19 17 14 13 13 15 15 13 11 9 6 4 2 1 0 0 0 0 0 0 0 0 0 0 0 0 0 0 0 0 0 0 0 0 0 0 0 0 0 0 0
Wind_Speed
10 10 10 11 11 11 11 10 9 9 7 5 5 4 4 3 3 4 6 5 4 5 3 3 4 2 2 3 3 2 3 2 1 1 1 1 3 3 3 3 3 4 5
11 11 10 10 12 11 11 10 9 9 8 6 4 3 4 3 3 3 5 6 5 5 5 4 3 3 2 2 1 1 1 2 3 2 1 1 1 2 4 3 4 4 4
12 12 11 10 10 11 11 10 9 9 9 8 5 4 2 2 3 4 4 5 6 5 3 5 3 3 3 3 3 3 3 1 1 2 1 1 1 1 1 3 3 3 3
12 12 11 11 11 11 10 10 9 9 8 8 7 7 5 5 4 4 4 5 5 5 5 4 4 2 2 4 4 4 2 2 1 1 1 1 2 1 1 2 2 4 4
12 12 12 12 11 11 10 10 9 9 9 8 8 7 6 4 4 4 5 5 5 5 5 5 4 3 2 4 3 3 2 1 2 2 2 2 2 2 2 2 2 2 3
11 11 11 11 9 10 10 10 10 9 8 8 8 7 7 6 5 5 6 5 4 4 5 5 4 4 3 3 3 2 3 2 1 1 1 1 1 2 1 2 2 2 2
11 11 11 11 9 9 10 10 10 9 9 9 8 7 7 6 6 6 6 5 5 4 5 6 5 4 3 3 3 3 2 3 2 1 1 1 1 1 1 0 1 1 1
11 11 11 10 9 9 9 10 10 9 9 8 7 6 7 5 5 6 5 5 4 5 6 6 5 5 4 5 4 3 4 3 2 3 2 2 1 1 1 0 0 1 1
11 11 11 10 9 9 9 10 9 8 8 8 7 6 6 5 5 5 5 4 3 4 6 6 6 5 5 4 4 3 3 3 3 3 3 2 2 1 1 1 0 0 1
11 11 11 11 9 8 8 9 9 7 7 6 6 6 6 6 5 4 5 4 4 3 5 6 6 6 5 5 4 4 3 4 3 2 1 2 1 1 1 1 1 1 0
11 10 10 10 10 9 9 8 8 7 6 6 5 5 6 6 5 4 4 4 3 3 4 4 5 5 5 5 5 4 4 4 3 2 2 1 0 2 2 2 1 1 1
11 11 10 10 9 9 9 8 8 7 7 6 5 5 5 5 5 5 4 4 4 3 4 4 4 4 5 4 4 4 3 3 3 2 1 1 0 1 1 2 2 1 1
10 11 10 9 8 8 8 8 8 7 7 6 5 5 5 5 4 4 4 4 4 3 3 3 3 2 3 4 4 3 2 3 3 3 3 2 2 2 2 2 2 2 2
10 10 9 8 8 7 7 6 6 6 6 6 5 5 4 4 4 4 3 3 3 3 3 2 2 2 2 3 4 4 4 4 4 4 5 4 4 3 3 3 3 3 2
9 9 9 8 7 7 6 6 6 6 5 5 5 5 4 4 4 4 3 4 3 3 3 3 3 3 3 3 4 4 5 5 6 6 7 8 10 11 7 5 4 4 3
9 10 9 9 8 7 6 6 6 6 5 5 5 5 5 5 4 4 4 5 4 4 5 5 5 5 4 6 7 5 5 6 6 6 6 7 9 12 13 14 13 10 6
7 8 8 7 7 6 6 6 6 6 5 5 5 6 6 6 5 5 5 6 6 6 6 7 7 7 7 9 9 9 7 7 6 6 5 6 7 7 7 10 12 13 13
7 6 7 7 7 7 7 7 7 6 6 6 6 6 6 6 6 6 6 6 6 6 6 7 7 7 8 9 10 10 9 8 8 7 7 7 6 6 6 8 9 8 8
6 5 5 7 7 6 7 7 7 7 6 6 6 6 7 7 7 7 7 6 7 7 7 7 7 8 7 9 9 9 8 8 9 8 8 7 7 9 8 7 7 6 5
7 5 5 7 7 6 6 7 7 6 6 6 6 6 7 7 8 8 7 7 7 8 7 8 8 8 7 8 8 7 6 8 8 8 9 12 10 10 10 7 6 5 3
7 7 6 6 6 7 7 7 7 7 7 7 8 8 8 8 8 8 7 8 8 9 8 9 8 8 8 9 10 8 5 6 7 7 6 6 10 11 10 8 5 3 2
7 7 7 7 6 7 7 8 8 7 8 9 9 8 8 8 8 9 8 8 8 9 8 8 8 7 7 8 9 11 9 8 8 7 6 6 9 9 9 6 5 5 4
6 7 8 8 7 6 7 9 8 8 10 10 10 9 9 8 8 8 8 7 6 6 7 7 7 7 6 8 13 14 14 13 8 7 9 8 7 5 4 4 4 4 3
6 6 8 8 7 7 8 9 9 10 11 11 10 9 9 9 9 7 6 5 5 6 6 6 7 6 6 5 5 6 8 10 9 6 6 5 3 2 1 1 1 2 3
5 6 7 9 9 8 8 8 9 10 11 11 10 10 10 10 10 10 9 8 7 6 6 6 6 6 6 4 5 4 4 4 5 3 3 2 2 2 2 2 2 3 3
6 7 8 9 9 9 9 8 8 9 11 11 9 8 8 8 9 10 11 18 14 18 17 13 10 8 9 9 10 10 9 7 4 2 2 3 3 3 3 3 3 3 4
Wind_Direction
154 146 149 152 153 155 158 164 167 164 165 168 168 169 169 176 167 163 158 161 173 168 171 152 155 191 154 154 155 154 163 188 189 161 151 197 188 184 180 191 179 183 186
150 149 152 155 159 161 163 164 170 169 172 171 166 168 169 178 171 159 152 165 178 180 174 164 171 174 142 149 162 152 180 207 190 179 145 202 211 226 197 182 190 186 181
154 155 156 156 160 166 170 173 174 172 177 169 164 161 151 168 163 157 161 181 184 186 183 167 184 174 173 169 187 183 200 227 207 184 170 167 191 209 220 201 182 179 181
152 154 159 164 169 172 172 172 173 174 173 170 170 169 174 180 178 167 167 185 190 185 186 176 178 174 182 165 193 188 195 199 228 198 193 162 127 150 191 240 193 188 190
149 155 161 165 170 170 168 168 168 171 173 177 175 179 183 183 181 169 167 182 187 194 189 176 175 189 203 171 175 146 192 212 227 223 197 188 178 212 183 206 208 207 197
145 151 155 157 165 167 165 167 168 171 175 180 184 186 187 181 179 178 174 184 182 194 195 181 180 188 199 169 159 156 193 231 266 285 260 189 187 218 209 198 206 211 211
148 151 154 157 162 165 167 166 166 169 174 181 187 188 188 184 184 184 189 190 184 187 191 182 177 189 188 172 171 175 212 209 224 255 286 295 257 232 244 202 245 232 211
148 150 152 154 161 165 165 164 165 167 174 179 183 185 183 189 188 193 194 196 193 186 171 170 179 188 189 192 178 185 200 197 203 228 243 291 286 285 266 210 249 288 266
147 151 152 153 161 164 165 165 161 166 175 178 178 184 189 192 186 186 192 195 197 182 168 174 182 187 187 189 173 201 205 170 190 222 216 236 275 270 289 328 350 265 285
148 150 149 152 157 159 156 153 155 164 171 172 179 185 187 183 184 192 197 191 192 186 168 181 186 186 184 187 190 206 194 174 192 214 213 207 286 318 341 19 3 3 305
148 147 145 148 152 151 151 152 154 160 167 174 178 174 175 179 185 195 197 181 177 168 169 184 190 187 188 189 192 209 193 184 190 216 204 176 323 11 12 20 12 5 6
146 141 138 142 148 150 151 155 161 166 169 170 167 167 170 172 179 188 186 177 177 177 176 182 190 196 188 184 188 198 189 168 169 179 127 114 164 77 5 9 356 352 11
141 139 141 142 144 143 146 154 163 164 166 164 167 164 170 171 170 168 170 170 173 176 171 174 185 195 174 159 162 158 138 124 117 104 87 67 49 49 39 26 2 359 360
138 141 137 135 136 136 140 147 154 154 158 161 162 158 164 158 157 155 159 160 154 153 146 145 156 146 130 130 134 131 121 107 95 87 80 69 60 48 37 36 15 357 354
140 137 136 132 135 138 146 149 147 143 144 146 145 139 135 126 129 128 125 116 118 129 113 107 101 97 100 106 117 119 123 114 102 91 85 78 77 69 62 58 37 25 27
144 141 140 141 145 145 148 141 135 133 134 137 134 127 125 122 120 121 115 107 101 96 95 91 88 82 80 80 96 110 109 107 108 106 101 95 84 82 78 73 63 54 51
133 138 140 137 138 143 146 142 134 132 132 130 124 122 123 118 112 115 107 103 98 91 87 85 86 83 70 74 86 94 95 92 91 91 88 87 76 79 86 82 71 59 53
121 124 135 136 140 142 137 132 134 133 133 128 123 121 120 117 113 108 103 98 97 96 93 92 91 86 72 75 87 95 92 86 80 81 87 88 74 61 76 84 75 64 51
110 110 121 129 129 129 130 136 136 133 132 128 123 121 124 122 119 112 106 103 100 94 91 88 86 86 74 70 87 100 100 92 80 70 65 70 69 57 69 88 91 86 76
100 101 108 112 115 115 119 123 123 118 116 115 114 113 116 117 114 111 108 103 98 94 89 84 81 82 76 62 73 92 107 103 96 84 72 64 67 60 57 73 77 73 51
99 96 94 102 107 114 116 113 109 108 107 103 100 100 103 106 106 104 102 104 102 98 92 88 80 75 72 67 67 76 95 108 104 93 81 69 67 64 59 64 69 63 4
101 101 95 93 94 104 112 112 108 108 108 106 104 102 99 101 103 103 101 104 109 107 103 98 87 74 68 67 71 74 75 89 95 94 93 92 82 71 63 62 48 30 14
102 102 103 97 90 92 103 110 109 108 106 102 100 99 96 92 98 105 110 112 111 111 112 108 101 94 87 79 75 76 78 81 88 94 106 110 104 88 74 69 42 27 25
100 105 110 107 97 92 94 103 108 110 111 108 103 100 95 88 79 74 75 83 95 107 111 109 108 105 96 91 93 95 95 98 100 107 115 118 118 110 85 64 52 61 46
100 99 104 106 103 100 98 103 111 114 112 107 103 98 92 91 81 71 60 66 56 72 98 104 106 110 100 80 85 102 99 100 101 123 148 157 154 142 124 98 76 62 48
102 103 105 108 106 103 99 100 107 114 115 112 108 103 103 101 99 95 78 58 66 66 67 76 91 88 96 95 80 76 76 77 67 64 106 97 80 71 70 68 68 64 49